Flag for Norway Weather past 2 weeks in Fosnavåg, Norway

Now
47 °F

Cool.


Feels Like: 42 °F
Forecast: 49 / 54 °F
Wind: 14 mph from West

Location: Svinoy Fyr

Current Time: Oct 22, 2014 at 7:58:19 AM

Latest Report: Oct 22, 2014 at 7:00 AM


Visibility: N/A

Pressure: 29.62 "Hg

Humidity: 83%

Dew point: 43 °F

Location of FosnavågLocation

Historic Weather in Fosnavåg — Graph

°F

Fosnavåg temperature yesterday

Maximum temperature yesterday: 56 °F (at 12:00 PM)
Minimum temperature yesterday: 51 °F (at 1:00 AM)
Average temperature yesterday: 54 °F

Past Weeks' High & Low Weather Summary

 TemperatureHumidityPressure
High59 °F (Oct 19, 2:00 PM)93% (Oct 20, 12:00 AM)30.00 "Hg (Oct 20, 12:00 AM)
Low46 °F (Oct 17, 8:00 AM)34% (Oct 7, 1:00 PM)29.18 "Hg (Oct 19, 7:00 PM)
Average52 °F71%29.64 "Hg
* Reported Oct 7 6:00 AM — Oct 22 6:00 AM, Fosnavåg, Weather by CustomWeather, © 2014

Note: Actual official high and low records may vary slightly from our data, if they occured in-between our weather recording intervals... More about our weather records

Advertising

Fosnavåg weather history for previous 24 hours

 ConditionsComfort  
Time TempWeatherWind HumidityBarometerVisibility
6:00 AM
Oct 22
47 °FCool.14 mph89%29.56 "HgN/A
5:00 AM49 °FCool.15 mph90%29.50 "HgN/A
4:00 AM53 °FCool.15 mph83%29.44 "HgN/A
3:00 AM55 °FCool.7 mph73%29.41 "HgN/A
2:00 AM53 °FCool.3 mph79%29.38 "HgN/A
1:00 AM54 °FCool.2 mph78%29.35 "HgN/A
12:00 AM53 °FCool.3 mph78%29.32 "HgN/A
11:00 PM
Oct 21
54 °FCool.5 mph76%29.29 "HgN/A
10:00 PM54 °FCool.5 mph74%29.29 "HgN/A
9:00 PM54 °FCool.5 mph73%29.26 "HgN/A
8:00 PM55 °FCool.3 mph72%29.23 "HgN/A
7:00 PM55 °FCool.5 mph67%29.23 "HgN/A
6:00 PM56 °FCool.7 mph65%29.21 "HgN/A
5:00 PM56 °FCool.7 mph65%29.21 "HgN/A
4:00 PM55 °FCool.7 mph65%29.21 "HgN/A
3:00 PM56 °FRefreshingly cool.9 mph59%29.21 "HgN/A
2:00 PM55 °FCool.8 mph62%29.21 "HgN/A
1:00 PM56 °FRefreshingly cool.7 mph58%29.23 "HgN/A
12:00 PM56 °FRefreshingly cool.7 mph58%29.23 "HgN/A
11:00 AM54 °FCool.7 mph61%29.23 "HgN/A
10:00 AM54 °FCool.7 mph61%29.26 "HgN/A
9:00 AM54 °FCool.7 mph63%29.26 "HgN/A
8:00 AM53 °FCool.6 mph64%29.29 "HgN/A
7:00 AM52 °FCool.8 mph62%29.29 "HgN/A
Weather by CustomWeather, © 2014

See weather overviewHow to use our weather pages